This demonstration page uses our WeatherBlox Daily Observations layout. Learn more.

Hourly Observations for August 11, 2017

Temp ( °F °C ) Dew Point ( °F °C ) Humidity (%) Winds ( mph kmh ) Pressure ( in mb ) Visibility ( mi km ) Precip ( " mm )
12:15 am 00:15 Mostly Cloudy 62 16.5 59 15 91 91 N 3 6 30.15 1021 10 16.09344 0 0
12:35 am 00:35 Cloudy 62 16.5 59 15 91 91 N 3 6 30.15 1021 10 16.09344 0 0
12:55 am 00:55 Cloudy 62 16.7 58 14.5 87 87 N 3 6 30.15 1021 10 16.09344 0 0
1:15 am 01:15 Cloudy 62 16.5 58 14.5 88 88 N 3 6 30.15 1021 10 16.09344 0 0
1:35 am 01:35 Cloudy 62 16.5 58 14.5 88 88 N 5 7 30.15 1021 10 16.09344 0 0
1:55 am 01:55 Cloudy 61 16.2 58 14.5 90 90 N 5 7 30.15 1021 10 16.09344 0 0
2:15 am 02:15 Cloudy 61 16.2 58 14.5 90 90 N 6 9 30.12 1020 10 16.09344 0 0
2:35 am 02:35 Cloudy 60 15.8 58 14.3 91 91 Calm 30.12 1020 10 16.09344 0 0
2:55 am 02:55 Partly Cloudy 60 15.3 57 14 92 92 Calm 30.12 1020 10 16.09344 0 0
3:15 am 03:15 Clear 59 15.1 57 13.9 93 93 N 3 6 30.12 1020 10 16.09344 0 0
3:35 am 03:35 Clear 58 14.7 56 13.6 93 93 N 3 6 30.12 1020 10 16.09344 0 0
3:55 am 03:55 Clear 58 14.4 56 13.4 94 94 Calm 30.12 1020 10 16.09344 0 0
4:15 am 04:15 Clear 57 14 56 13.1 94 94 NNW 3 6 30.18 1022 10 16.09344 0 0
4:35 am 04:35 Clear 57 13.7 55 12.8 94 94 NW 5 7 30.15 1021 10 16.09344 0 0
4:55 am 04:55 Clear 56 13.6 55 12.7 94 94 Calm 30.15 1021 10 16.09344 0 0
5:15 am 05:15 Clear 56 13.1 54 12.3 95 95 NW 5 7 30.18 1022 10 16.09344 0 0
5:35 am 05:35 Clear 55 12.9 54 12 94 94 NW 6 9 30.18 1022 10 16.09344 0 0
5:55 am 05:55 Clear 55 12.5 53 11.7 95 95 NW 5 7 30.18 1022 10 16.09344 0 0
6:15 am 06:15 Clear 54 12.2 53 11.4 95 95 NW 6 9 30.18 1022 7 11.265408 0 0
6:35 am 06:35 Clear 54 12.3 53 11.5 95 95 NNW 6 9 30.18 1022 10 16.09344 0 0
6:55 am 06:55 Sunny 55 12.6 53 11.8 95 95 NNW 6 9 30.18 1022 10 16.09344 0 0
7:15 am 07:15 Sunny 55 12.5 53 11.5 94 94 Calm 30.18 1022 10 16.09344 0 0
7:35 am 07:35 Sunny 55 13 54 12 94 94 Calm 30.18 1022 10 16.09344 0 0
7:55 am 07:55 Sunny 57 13.7 55 12.5 93 93 NNW 5 7 30.18 1022 10 16.09344 0 0
8:15 am 08:15 Sunny 58 14.5 55 12.9 90 90 NNW 5 7 30.21 1023 10 16.09344 0 0
8:35 am 08:35 Sunny 60 15.5 56 13.5 88 88 NNW 5 7 30.18 1022 10 16.09344 0 0
8:55 am 08:55 Sunny 61 16 56 13.5 85 85 NNW 5 7 30.18 1022 10 16.09344 0 0
9:15 am 09:15 Sunny 62 16.8 57 14 84 84 N 5 7 30.18 1022 10 16.09344 0 0
9:35 am 09:35 Sunny 64 17.5 57 14 80 80 NNW 3 6 30.18 1022 10 16.09344 0 0
9:55 am 09:55 Sunny 65 18.4 58 14.4 78 78 NNW 3 6 30.15 1021 10 16.09344 0 0
10:15 am 10:15 undefined N/A N/A N/A N 5 7 N/A N/A 0 0
10:35 am 10:35 Sunny 68 19.8 57 13.8 68 68 Calm 30.15 1021 10 16.09344 0 0
10:55 am 10:55 Sunny 69 20.4 56 13.1 63 63 NE 5 7 30.15 1021 10 16.09344 0 0
11:15 am 11:15 Sunny 69 20.6 55 13 62 62 Calm 30.15 1021 10 16.09344 0 0
11:35 am 11:35 Partly Cloudy 69 20.8 55 12.5 59 59 NE 3 6 30.15 1021 10 16.09344 0 0
11:55 am 11:55 Sunny 70 21.3 56 13.2 60 60 Calm 30.15 1021 10 16.09344 0 0
12:15 pm 12:15 Partly Cloudy 71 21.7 55 12.8 57 57 Calm 30.12 1020 10 16.09344 0 0
12:35 pm 12:35 Sunny 71 21.5 53 11.6 53 53 Calm 30.09 1019 10 16.09344 0 0
12:55 pm 12:55 Partly Cloudy 72 22 55 13 57 57 Calm 30.09 1019 10 16.09344 0 0
1:35 pm 13:35 Partly Cloudy 72 22.2 54 12.2 53 53 NNE 3 6 30.09 1019 10 16.09344 0 0
1:55 pm 13:55 Sunny 73 22.7 55 12.7 53 53 Calm 30.09 1019 10 16.09344 0 0
2:15 pm 14:15 Partly Cloudy 73 23 54 12.1 50 50 NW 3 6 30.09 1019 10 16.09344 0 0
2:35 pm 14:35 Mostly Cloudy 74 23.1 55 12.5 51 51 N 3 6 30.06 1018 10 16.09344 0 0
2:55 pm 14:55 Partly Cloudy 73 23 54 12 50 50 NE 3 6 30.06 1018 10 16.09344 0 0
3:15 pm 15:15 Sunny 74 23.1 52 11.3 47 47 Calm 30.06 1018 10 16.09344 0 0
3:35 pm 15:35 Sunny 73 23 52 11 47 47 Calm 30.03 1017 10 16.09344 0 0
3:55 pm 15:55 Sunny 74 23.6 51 10.6 44 44 NW 5 7 30.03 1017 10 16.09344 0 0
4:15 pm 16:15 Sunny 74 23.5 51 10.7 45 45 Calm 30.03 1017 10 16.09344 0 0
4:35 pm 16:35 Sunny 74 23.5 50 10.2 43 43 Calm 30.03 1017 10 16.09344 0 0
4:55 pm 16:55 Sunny 75 23.9 53 11.8 47 47 Calm 30.03 1017 10 16.09344 0 0
5:15 pm 17:15 Sunny 74 23.6 53 11.4 46 46 Calm 30.03 1017 10 16.09344 0 0
5:35 pm 17:35 Sunny 74 23.6 52 11.3 46 46 Calm 30.03 1017 10 16.09344 0 0
5:55 pm 17:55 Sunny 74 23.6 51 10.8 45 45 Calm 30.03 1017 10 16.09344 0 0
6:15 pm 18:15 Sunny 75 23.7 50 10.1 42 42 Calm 30.03 1017 10 16.09344 0 0
6:35 pm 18:35 Sunny 74 23.6 51 10.6 44 44 Calm 30.03 1017 10 16.09344 0 0
6:55 pm 18:55 Sunny 74 23.3 51 10.6 45 45 Calm 30.03 1017 10 16.09344 0 0
7:15 pm 19:15 Sunny 74 23.1 53 11.8 49 49 ESE 5 7 30.03 1017 10 16.09344 0 0
7:35 pm 19:35 Sunny 73 22.6 56 13.5 57 57 SE 3 6 30.03 1017 10 16.09344 0 0
7:55 pm 19:55 Sunny 72 22.1 58 14.6 63 63 SE 5 7 30.03 1017 10 16.09344 0 0
8:15 pm 20:15 Sunny 70 21 58 14.6 67 67 ESE 5 7 30.03 1017 10 16.09344 0 0
8:35 pm 20:35 Sunny 66 18.9 60 15.4 80 80 ESE 6 9 30.06 1018 10 16.09344 0 0
8:55 pm 20:55 Clear 65 18.6 58 14.4 77 77 SE 6 9 30.06 1018 10 16.09344 0 0
9:15 pm 21:15 Clear 62 16.8 57 14 84 84 SE 7 11 30.09 1019 10 16.09344 0 0
9:35 pm 21:35 Clear 62 16.5 58 14.5 88 88 ESE 7 11 30.09 1019 10 16.09344 0 0
9:55 pm 21:55 Clear 61 16 57 13.8 87 87 SE 6 9 30.09 1019 10 16.09344 0 0
10:15 pm 22:15 Clear 60 15.8 56 13.5 86 86 SE 7 11 30.09 1019 10 16.09344 0 0
10:35 pm 22:35 Clear 60 15.5 56 13.1 86 86 ESE 7 11 30.09 1019 10 16.09344 0 0
10:55 pm 22:55 Clear 59 15.1 55 13 87 87 ESE 6 9 30.09 1019 10 16.09344 0 0
11:15 pm 23:15 Clear 60 15.6 55 13 85 85 ESE 6 9 30.09 1019 10 16.09344 0 0
11:35 pm 23:35 Clear 60 15.6 55 12.8 84 84 SSE 6 9 30.09 1019 10 16.09344 0 0
11:55 pm 23:55 Clear 60 15.5 55 12.8 84 84 SE 5 7 30.09 1019 10 16.09344 0 0

Powered by AerisWeather